Powrót do katalogu

KUIPER-00172

AktywnyŁącznośćLEO
NORAD 65785·PAYLOAD·🇺🇸 United States

Wystrzelony Sep 25, 2025 z Cape Canaveral Space Force Station

Loading…

Następne Przeloty (najbliższe 24 godziny)

TLE

ŚwieżeSource: CelesTrak SupGP

Epoka: Sep 14, 2026, 21:45 UTC

1 65785C 25217Z   26257.90671296  .00002809  00000+0  36775-3 0  2576
2 65785  51.8978 263.8829 0000758  40.2969 216.2633 14.79917970    17

Śledź KUIPER-00172 w czasie rzeczywistym z AllMySat

Download on the App Store